Miscellaneous Local Product
Issued by NWS North Platte, NE

Home | Current Version | Previous Version | Graphics & Text | Print | Product List | Glossary Off
Versions: 1 2 3 4 5 6 7 8 9 10 11 12 13 14 15 16 17 18 19 20 21 22 23 24 25 26 27 28 29 30 31 32 33 34 35 36 37 38 39 40 41 42 43 44 45 46 47 48 49 50

000
AXUS43 KLBF 271710
MISLBF


WESTERN AND NORTH CENTRAL NEBRASKA HOURLY WEATHER ROUNDUP
NATIONAL WEATHER SERVICE NORTH PLATTE NE
1200 PM CDT THU APR 27 2017

NOTE: "FAIR" INDICATES FEW OR NO CLOUDS BELOW 12,000 FEET WITH NO
SIGNIFICANT WEATHER AND/OR OBSTRUCTIONS TO VISIBILITY.

NOTE: STATIONS NOT REPORTING VARIABLES SUCH AS SKY/WEATHER OR
PRESSURE ARE PROVIDED BY RAWS AND APRS NETWORKS AND ARE NOT UNDER
NATIONAL WEATHER SERVICE QUALITY CONTROL.

...OBSERVATIONS IN AND NEAR THE EASTERN PANHANDLE OF NEBRASKA...

CITY           SKY/WX    TMP DP  RH WIND       PRES   REMARKS
PINE RIDGE     PTSUNNY   49  35  58 NE13      29.62F
CHADRON        CLOUDY    46  35  65 NE6       29.60F
ALLIANCE       CLOUDY    48  35  60 SE12      29.57F
SIDNEY         CLOUDY    45  40  82 E9        29.58F
CRESCENT LAKE    N/A     44  37  77 SE7G14      N/A
$$

...OBSERVATIONS IN NORTHERN NEBRASKA AND FAR SOUTHERN SOUTH DAKOTA...

CITY           SKY/WX    TMP DP  RH WIND       PRES   REMARKS
WINNER         FAIR      42  30  62 VRB5      29.72S
VALENTINE      SUNNY     48  29  47 NE7       29.67F
THEDFORD       CLOUDY    49  32  52 SE5       29.67F
AINSWORTH      SUNNY     45  33  64 NE6       29.69S
O`NEILL        PTSUNNY   40  31  70 NE6       29.73R
ORD            SUNNY     48  32  53 CALM      29.69F
BROKEN BOW     CLOUDY    48  32  53 SE6       29.68S
VALENTINE NWR    N/A     46  32  58 NE6         N/A
HALSEY           N/A     50  32  50 E6          N/A
BUTTE            N/A     39  31  72 CALM        N/A
CHAMBERS         N/A     47  33  57 E7          N/A
EWING            N/A     39  34  82 N5          N/A
$$

...OBSERVATIONS IN SOUTHWEST NEBRASKA AND FAR NORTHEAST COLORADO...

CITY           SKY/WX    TMP DP  RH WIND       PRES   REMARKS
HOLYOKE        FAIR      54  37  54 E12G17    29.58S
IMPERIAL       CLOUDY    46  33  60 E14       29.60F
OGALLALA       CLOUDY    48  35  60 E13       29.62R
NORTH PLATTE   CLOUDY    47  34  60 E15       29.66S
MCCOOK         CLOUDY    45  35  68 E18       29.64F
LEXINGTON      PTSUNNY   49  33  53 E8        29.69S
STAPLETON        N/A     43  32  66 NE3         N/A
GOTHENBURG       N/A     44  31  60 SE8         N/A
CALLAWAY         N/A     42  33  71 E7          N/A
$$

...OBSERVATIONS IN CENTRAL LINCOLN COUNTY AREA...

CITY           SKY/WX    TMP DP  RH WIND       PRES   REMARKS
N.P. AIRPORT   CLOUDY    47  34  60 E15       29.66S
N.P. DOWNTOWN    N/A     47  36  65 E3G14       N/A
N.P. SOUTHEAST   N/A     46  34  63 E6          N/A
N.P. HILLCREST   N/A     47  35  63 SE13G20     N/A
$$

...SOME OBSERVATIONS FROM AROUND THE REGION...

CITY           SKY/WX    TMP DP  RH WIND       PRES   REMARKS
DENVER         CLOUDY    46  36  68 NW12      29.53F
LIMON          CLOUDY    54  33  45 S7        29.52F
ASPEN          CLOUDY    42  32  67 N9        29.64F
LARAMIE        LGT RAIN  40  32  73 NE7       29.54F
CASPER         CLOUDY    44  37  76 N16       29.51S
CHEYENNE       CLOUDY    41  36  82 E6        29.56S
SCOTTSBLUFF    CLOUDY    47  38  71 CALM      29.57S
GRAND ISLAND   PTSUNNY   51  31  46 W3        29.72F
OMAHA          PTSUNNY   47  33  58 W9        29.74R
SIOUX FALLS    CLOUDY    38  29  70 NW17      29.70S WCI  28
PIERRE         CLOUDY    39  28  64 N9        29.72S WCI  33
RAPID CITY     CLOUDY    42  32  67 SE7       29.66S
BISMARCK       SUNNY     44  22  41 NE9       29.74S
KANSAS CITY    MOSUNNY   55  37  50 W12G21    29.77R
HILL CITY      LGT RAIN  50  36  58 SE16      29.67F
WICHITA        PTSUNNY   57  41  55 SE8G17    29.75R
DODGE CITY     CLOUDY    59  39  47 S20       29.63F
OKLAHOMA CITY  CLOUDY    61  46  57 S12       29.75F
DALLAS         MOSUNNY   67  48  50 S13G22    29.80S
AMARILLO       SUNNY     68  40  35 S22G32    29.60F
$$




USA.gov is the U.S. government's official web portal to all federal, state and local government web resources and services.